EZY88P EGPH-EGKK

Flight info

Callsign EZY88P
Flight time 1h 10m
Altitude 37000
Route GOSAM P600 FENIK L612 NAVSO DCT ADZOP DCT EGTOC DCT KEPAD L151 DISIT
Aircraft A319/M-SDE3FGHIRWY/LB1

Departure

Time 2026-05-07 21:56
Airport Edinburgh Airport (EGPH)

Arrival

Time 2026-05-07 23:07
Airport London Gatwick Airport (EGKK)
Time Latitude Longitude Altitude Speed Heading
2026-05-07 21:29 55.94702 -3.36599 113 ft 0 kts 89°
2026-05-07 21:43 55.94702 -3.36602 116 ft 2 kts 89°
2026-05-07 21:44 55.94702 -3.36647 112 ft 4 kts 89°
2026-05-07 21:44 55.94701 -3.36686 112 ft 4 kts 82°
2026-05-07 21:44 55.94692 -3.36725 112 ft 4 kts 31°
2026-05-07 21:44 55.94672 -3.36735 112 ft 1 kts 359°
2026-05-07 21:47 55.94717 -3.36736 114 ft 12 kts 359°
2026-05-07 21:47 55.94793 -3.36778 116 ft 12 kts 352°
2026-05-07 21:48 55.94845 -3.36780 116 ft 0 kts
2026-05-07 21:50 55.94846 -3.36780 116 ft 1 kts
2026-05-07 21:51 55.94854 -3.36779 116 ft 0 kts
2026-05-07 21:52 55.94855 -3.36779 116 ft 0 kts
2026-05-07 21:52 55.94857 -3.36779 116 ft 1 kts
2026-05-07 21:53 55.94893 -3.36801 114 ft 12 kts 334°
2026-05-07 21:53 55.94975 -3.36756 115 ft 19 kts 57°
2026-05-07 21:53 55.95058 -3.36505 114 ft 26 kts 59°
2026-05-07 21:53 55.95137 -3.36274 115 ft 15 kts 59°
2026-05-07 21:54 55.95196 -3.36097 115 ft 19 kts 59°
2026-05-07 21:54 55.95269 -3.35882 113 ft 21 kts 59°
2026-05-07 21:54 55.95345 -3.35659 116 ft 21 kts 58°
2026-05-07 21:54 55.95423 -3.35433 116 ft 20 kts 50°
2026-05-07 21:55 55.95506 -3.35446 113 ft 0 kts 326°
2026-05-07 21:55 55.95521 -3.35463 115 ft 13 kts 328°
2026-05-07 21:55 55.95533 -3.35681 113 ft 20 kts 239°
2026-05-07 21:56 55.95429 -3.35989 111 ft 59 kts 238°
2026-05-07 21:56 55.95079 -3.37018 113 ft 132 kts 239°
2026-05-07 21:56 55.94558 -3.38584 568 ft 151 kts 238°
2026-05-07 21:56 55.94021 -3.40208 1394 ft 150 kts 236°
2026-05-07 21:57 55.93482 -3.41792 2220 ft 153 kts 235°
2026-05-07 21:57 55.92884 -3.43494 2684 ft 175 kts 236°
2026-05-07 21:57 55.92187 -3.45466 3139 ft 201 kts 236°
2026-05-07 21:57 55.91398 -3.47707 3740 ft 226 kts 237°
2026-05-07 21:58 55.90566 -3.50230 4343 ft 244 kts 245°
2026-05-07 21:58 55.90212 -3.53183 5064 ft 250 kts 259°
2026-05-07 21:58 55.89928 -3.56281 6223 ft 253 kts 257°
2026-05-07 21:58 55.89621 -3.59390 7284 ft 256 kts 257°
2026-05-07 21:59 55.89302 -3.62543 8350 ft 260 kts 257°
2026-05-07 21:59 55.88977 -3.65735 9405 ft 264 kts 257°
2026-05-07 21:59 55.88656 -3.68897 10350 ft 271 kts 257°
2026-05-07 21:59 55.88302 -3.72338 10782 ft 295 kts 257°
2026-05-07 22:00 55.87923 -3.76031 11415 ft 308 kts 257°
2026-05-07 22:00 55.87536 -3.79819 12296 ft 314 kts 257°
2026-05-07 22:00 55.87153 -3.83673 13186 ft 319 kts 257°
2026-05-07 22:00 55.86774 -3.87569 14040 ft 323 kts 257°
2026-05-07 22:01 55.86397 -3.91414 14805 ft 327 kts 257°
2026-05-07 22:01 55.85999 -3.95422 15630 ft 330 kts 257°
2026-05-07 22:01 55.85591 -3.99461 16496 ft 332 kts 257°
2026-05-07 22:01 55.85178 -4.03520 17311 ft 335 kts 257°
2026-05-07 22:02 55.84761 -4.07609 18128 ft 338 kts 256°
2026-05-07 22:02 55.84086 -4.11548 18798 ft 338 kts 242°
2026-05-07 22:02 55.82749 -4.14982 19461 ft 340 kts 225°
2026-05-07 22:02 55.80892 -4.17601 20138 ft 343 kts 214°
2026-05-07 22:03 55.78920 -4.19996 20821 ft 346 kts 215°
2026-05-07 22:03 55.76925 -4.22438 21508 ft 350 kts 215°
2026-05-07 22:03 55.74893 -4.24545 22143 ft 354 kts 205°
2026-05-07 22:03 55.72517 -4.25823 22801 ft 361 kts 192°
2026-05-07 22:04 55.69981 -4.25998 23420 ft 370 kts 178°
2026-05-07 22:04 55.67440 -4.24989 23944 ft 381 kts 163°
2026-05-07 22:04 55.65017 -4.22982 24480 ft 387 kts 157°
2026-05-07 22:04 55.62652 -4.20746 25005 ft 391 kts 155°
2026-05-07 22:05 55.60293 -4.18397 25539 ft 394 kts 155°
2026-05-07 22:05 55.57912 -4.15978 26053 ft 396 kts 154°
2026-05-07 22:05 55.55508 -4.13542 26571 ft 399 kts 155°
2026-05-07 22:05 55.53088 -4.11123 27085 ft 401 kts 155°
2026-05-07 22:06 55.50690 -4.08757 27582 ft 404 kts 155°
2026-05-07 22:06 55.48227 -4.06354 28085 ft 406 kts 155°
2026-05-07 22:06 55.45740 -4.03951 28571 ft 409 kts 155°
2026-05-07 22:06 55.43345 -4.01641 28993 ft 412 kts 155°
2026-05-07 22:07 55.40819 -3.99202 29447 ft 415 kts 155°
2026-05-07 22:07 55.38411 -3.96879 29919 ft 418 kts 155°
2026-05-07 22:07 55.35856 -3.94417 30319 ft 420 kts 155°
2026-05-07 22:07 55.33286 -3.91945 30683 ft 423 kts 155°
2026-05-07 22:08 55.30738 -3.89494 31036 ft 425 kts 155°
2026-05-07 22:08 55.28137 -3.86993 31397 ft 428 kts 155°
2026-05-07 22:08 55.25672 -3.84631 31681 ft 431 kts 155°
2026-05-07 22:08 55.23022 -3.82149 32050 ft 431 kts 158°
2026-05-07 22:09 55.20252 -3.80235 32531 ft 426 kts 165°
2026-05-07 22:09 55.17507 -3.78721 32974 ft 426 kts 166°
2026-05-07 22:09 55.14678 -3.77173 33444 ft 426 kts 166°
2026-05-07 22:09 55.11855 -3.75629 33942 ft 425 kts 166°
2026-05-07 22:10 55.09091 -3.74120 34367 ft 425 kts 166°
2026-05-07 22:10 55.06207 -3.72545 34747 ft 425 kts 166°
2026-05-07 22:10 55.03377 -3.71002 34950 ft 427 kts 166°
2026-05-07 22:10 55.00560 -3.69467 34994 ft 421 kts 166°
2026-05-07 22:11 54.95016 -3.66445 34980 ft 415 kts 166°
2026-05-07 22:11 54.89489 -3.63445 34996 ft 416 kts 166°
2026-05-07 22:12 54.83955 -3.60455 34996 ft 416 kts 166°
2026-05-07 22:12 54.78452 -3.57490 34998 ft 417 kts 166°
2026-05-07 22:13 54.72919 -3.54511 35001 ft 416 kts 166°
2026-05-07 22:13 54.67383 -3.51542 34987 ft 417 kts 166°
2026-05-07 22:14 54.62775 -3.49086 34990 ft 417 kts 166°
2026-05-07 22:14 54.57234 -3.46127 34993 ft 417 kts 166°
2026-05-07 22:15 54.51689 -3.43179 34996 ft 417 kts 166°
2026-05-07 22:15 54.46133 -3.40232 35004 ft 417 kts 166°
2026-05-07 22:16 54.40580 -3.37297 34996 ft 417 kts 166°
2026-05-07 22:16 54.35022 -3.34368 35001 ft 417 kts 166°
2026-05-07 22:17 54.29468 -3.31451 35003 ft 417 kts 166°
2026-05-07 22:17 54.23912 -3.28543 35002 ft 417 kts 166°
2026-05-07 22:18 54.15498 -3.25137 34990 ft 412 kts 178°
2026-05-07 22:19 54.09781 -3.24250 34997 ft 413 kts 177°
2026-05-07 22:19 54.04092 -3.23359 35000 ft 413 kts 177°
2026-05-07 22:20 53.98417 -3.21680 35003 ft 418 kts 164°
2026-05-07 22:20 53.92968 -3.18176 34996 ft 419 kts 162°
2026-05-07 22:21 53.87517 -3.14645 35008 ft 419 kts 162°
2026-05-07 22:21 53.82055 -3.11132 35001 ft 420 kts 162°
2026-05-07 22:22 53.76579 -3.07638 35009 ft 421 kts 162°
2026-05-07 22:22 53.71096 -3.04129 35013 ft 422 kts 162°
2026-05-07 22:23 53.65611 -3.00632 35013 ft 422 kts 162°
2026-05-07 22:23 53.60119 -2.97138 35017 ft 422 kts 162°
2026-05-07 22:24 53.54634 -2.93662 35023 ft 422 kts 162°
2026-05-07 22:24 53.49133 -2.90193 35024 ft 422 kts 162°
2026-05-07 22:25 53.43676 -2.86747 35040 ft 421 kts 162°
2026-05-07 22:25 53.38187 -2.83297 35042 ft 421 kts 162°
2026-05-07 22:26 53.32698 -2.79860 35032 ft 421 kts 162°
2026-05-07 22:26 53.27208 -2.76429 35032 ft 421 kts 162°
2026-05-07 22:27 53.21718 -2.73009 35025 ft 421 kts 162°
2026-05-07 22:27 53.16226 -2.69595 35031 ft 421 kts 162°
2026-05-07 22:28 53.10745 -2.66189 35037 ft 421 kts 162°
2026-05-07 22:28 53.05253 -2.62791 35040 ft 421 kts 162°
2026-05-07 22:29 52.99850 -2.59453 35047 ft 421 kts 162°
2026-05-07 22:29 52.94379 -2.56091 35044 ft 421 kts 162°
2026-05-07 22:30 52.88890 -2.52716 35052 ft 420 kts 162°
2026-05-07 22:30 52.83409 -2.49366 35039 ft 420 kts 162°
2026-05-07 22:31 52.78254 -2.44893 35041 ft 425 kts 149°
2026-05-07 22:31 52.73327 -2.39437 34307 ft 429 kts 149°
2026-05-07 22:31 52.70853 -2.36707 33699 ft 426 kts 149°
2026-05-07 22:32 52.68399 -2.34005 33117 ft 422 kts 149°
2026-05-07 22:32 52.65973 -2.31343 32539 ft 418 kts 149°
2026-05-07 22:32 52.63567 -2.28706 31972 ft 414 kts 149°
2026-05-07 22:32 52.61178 -2.26085 31418 ft 411 kts 149°
2026-05-07 22:33 52.58808 -2.23487 30864 ft 408 kts 149°
2026-05-07 22:33 52.56451 -2.20911 30323 ft 405 kts 149°
2026-05-07 22:33 52.54107 -2.18355 29729 ft 402 kts 149°
2026-05-07 22:33 52.51788 -2.15831 29200 ft 397 kts 149°
2026-05-07 22:34 52.49501 -2.13339 28669 ft 393 kts 149°
2026-05-07 22:34 52.47235 -2.10866 28152 ft 389 kts 149°
2026-05-07 22:34 52.44996 -2.08427 27649 ft 385 kts 149°
2026-05-07 22:34 52.42769 -2.06007 27156 ft 382 kts 149°
2026-05-07 22:35 52.40559 -2.03616 26673 ft 379 kts 149°
2026-05-07 22:35 52.38362 -2.01246 26200 ft 377 kts 149°
2026-05-07 22:35 52.36180 -1.98891 25747 ft 375 kts 149°
2026-05-07 22:35 52.34014 -1.96557 25295 ft 371 kts 149°
2026-05-07 22:36 52.31865 -1.94242 24854 ft 368 kts 149°
2026-05-07 22:36 52.29733 -1.91947 24411 ft 365 kts 149°
2026-05-07 22:36 52.27676 -1.89731 23988 ft 362 kts 149°
2026-05-07 22:36 52.25578 -1.87471 23518 ft 360 kts 149°
2026-05-07 22:37 52.23520 -1.85258 23039 ft 356 kts 149°
2026-05-07 22:37 52.21459 -1.83050 22584 ft 352 kts 149°
2026-05-07 22:37 52.19414 -1.80863 22134 ft 348 kts 149°
2026-05-07 22:37 52.17396 -1.78704 21694 ft 345 kts 149°
2026-05-07 22:38 52.15394 -1.76566 21248 ft 343 kts 149°
2026-05-07 22:38 52.13407 -1.74451 20807 ft 340 kts 149°
2026-05-07 22:38 52.11456 -1.72379 20347 ft 339 kts 149°
2026-05-07 22:38 52.09487 -1.70283 19924 ft 339 kts 149°
2026-05-07 22:39 52.07477 -1.68142 19661 ft 349 kts 149°
2026-05-07 22:39 52.05613 -1.66157 19383 ft 350 kts 149°
2026-05-07 22:39 52.03577 -1.63993 19077 ft 349 kts 149°
2026-05-07 22:39 52.01554 -1.61842 18754 ft 347 kts 149°
2026-05-07 22:40 51.99534 -1.59703 18460 ft 346 kts 149°
2026-05-07 22:40 51.97643 -1.57706 18149 ft 345 kts 149°
2026-05-07 22:40 51.95637 -1.55585 17847 ft 343 kts 149°
2026-05-07 22:40 51.93641 -1.53477 17552 ft 342 kts 149°
2026-05-07 22:41 51.91749 -1.51480 17266 ft 340 kts 149°
2026-05-07 22:41 51.89768 -1.49394 16969 ft 339 kts 149°
2026-05-07 22:41 51.87794 -1.47317 16674 ft 338 kts 149°
2026-05-07 22:41 51.85913 -1.45338 16384 ft 336 kts 149°
2026-05-07 22:42 51.83964 -1.43289 16101 ft 334 kts 149°
2026-05-07 22:42 51.82018 -1.41249 15811 ft 333 kts 149°
2026-05-07 22:42 51.80079 -1.39216 15513 ft 332 kts 149°
2026-05-07 22:42 51.78195 -1.37242 15233 ft 330 kts 149°
2026-05-07 22:43 51.76268 -1.35227 14973 ft 329 kts 149°
2026-05-07 22:43 51.74405 -1.33282 14807 ft 328 kts 149°
2026-05-07 22:43 51.72494 -1.31288 14620 ft 327 kts 149°
2026-05-07 22:43 51.70585 -1.29295 14431 ft 326 kts 149°
2026-05-07 22:44 51.68686 -1.27315 14241 ft 325 kts 149°
2026-05-07 22:44 51.66801 -1.25352 14055 ft 325 kts 149°
2026-05-07 22:44 51.64907 -1.23382 13855 ft 324 kts 149°
2026-05-07 22:44 51.63019 -1.21420 13662 ft 323 kts 149°
2026-05-07 22:45 51.61134 -1.19467 13467 ft 322 kts 149°
2026-05-07 22:45 51.59251 -1.17514 13286 ft 321 kts 149°
2026-05-07 22:45 51.57375 -1.15571 13099 ft 321 kts 149°
2026-05-07 22:45 51.55500 -1.13631 12913 ft 320 kts 149°
2026-05-07 22:46 51.53623 -1.11691 12719 ft 320 kts 149°
2026-05-07 22:46 51.51752 -1.09761 12543 ft 319 kts 149°
2026-05-07 22:46 51.49884 -1.07842 12348 ft 319 kts 149°
2026-05-07 22:46 51.48020 -1.05927 12171 ft 318 kts 149°
2026-05-07 22:47 51.46159 -1.04012 11986 ft 317 kts 149°
2026-05-07 22:47 51.44304 -1.02100 11804 ft 317 kts 149°
2026-05-07 22:47 51.42451 -1.00190 11619 ft 316 kts 149°
2026-05-07 22:47 51.40610 -0.98294 11437 ft 315 kts 149°
2026-05-07 22:48 51.38758 -0.96394 11253 ft 315 kts 149°
2026-05-07 22:48 51.36911 -0.94507 11075 ft 315 kts 149°
2026-05-07 22:48 51.35060 -0.92618 10898 ft 316 kts 149°
2026-05-07 22:48 51.33232 -0.90753 10710 ft 315 kts 150°
2026-05-07 22:49 51.31383 -0.88867 10519 ft 315 kts 150°
2026-05-07 22:49 51.29540 -0.86988 10340 ft 312 kts 150°
2026-05-07 22:49 51.27751 -0.85165 10195 ft 299 kts 150°
2026-05-07 22:49 51.26015 -0.83395 9965 ft 292 kts 151°
2026-05-07 22:50 51.24305 -0.81652 9887 ft 292 kts 151°
2026-05-07 22:50 51.22574 -0.79892 9740 ft 291 kts 150°
2026-05-07 22:50 51.20894 -0.78185 9576 ft 290 kts 150°
2026-05-07 22:50 51.19173 -0.76433 9401 ft 289 kts 150°
2026-05-07 22:51 51.17478 -0.74713 9236 ft 288 kts 150°
2026-05-07 22:51 51.15812 -0.73024 9064 ft 287 kts 150°
2026-05-07 22:51 51.14128 -0.71317 8906 ft 287 kts 150°
2026-05-07 22:51 51.12447 -0.69619 8739 ft 286 kts 150°
2026-05-07 22:52 51.10767 -0.67927 8576 ft 285 kts 150°
2026-05-07 22:52 51.09092 -0.66241 8401 ft 284 kts 149°
2026-05-07 22:52 51.07427 -0.64561 8240 ft 283 kts 149°
2026-05-07 22:52 51.05864 -0.62654 8079 ft 284 kts 136°
2026-05-07 22:53 51.04668 -0.60170 7917 ft 284 kts 120°
2026-05-07 22:53 51.03781 -0.57359 7762 ft 284 kts 117°
2026-05-07 22:53 51.02908 -0.54557 7599 ft 282 kts 117°
2026-05-07 22:53 51.02035 -0.51769 7433 ft 281 kts 117°
2026-05-07 22:54 51.01163 -0.48994 7272 ft 280 kts 117°
2026-05-07 22:54 51.00295 -0.46235 7147 ft 279 kts 116°
2026-05-07 22:54 50.99432 -0.43489 7100 ft 278 kts 116°
2026-05-07 22:54 50.98570 -0.40747 7104 ft 278 kts 116°
2026-05-07 22:55 50.97715 -0.38032 7109 ft 278 kts 116°
2026-05-07 22:55 50.96851 -0.35295 7113 ft 278 kts 117°
2026-05-07 22:55 50.95994 -0.32544 7107 ft 278 kts 114°
2026-05-07 22:55 50.95560 -0.29583 6978 ft 276 kts 91°
2026-05-07 22:56 50.95894 -0.26634 6565 ft 272 kts 66°
2026-05-07 22:56 50.96988 -0.24259 6154 ft 267 kts 38°
2026-05-07 22:56 50.98664 -0.23092 5724 ft 266 kts
2026-05-07 22:56 51.00481 -0.23421 5230 ft 267 kts 338°
2026-05-07 22:57 51.01952 -0.25175 4736 ft 268 kts 307°
2026-05-07 22:57 51.02658 -0.27874 4253 ft 267 kts 275°
2026-05-07 22:57 51.02412 -0.30758 3771 ft 264 kts 247°
2026-05-07 22:57 51.01746 -0.33478 3272 ft 266 kts 253°
2026-05-07 22:58 51.01527 -0.36373 2998 ft 261 kts 269°
2026-05-07 22:58 51.01607 -0.38237 2981 ft 249 kts 277°
2026-05-07 22:58 51.01958 -0.40861 2990 ft 240 kts 285°
2026-05-07 22:58 51.02383 -0.43418 2992 ft 239 kts 284°
2026-05-07 22:59 51.02797 -0.45984 2993 ft 238 kts 284°
2026-05-07 22:59 51.03207 -0.48539 2994 ft 239 kts 284°
2026-05-07 22:59 51.03616 -0.51091 2996 ft 238 kts 284°
2026-05-07 22:59 51.04300 -0.53461 2989 ft 238 kts 314°
2026-05-07 23:00 51.05720 -0.54683 2999 ft 235 kts 352°
2026-05-07 23:00 51.07299 -0.54783 2998 ft 220 kts
2026-05-07 23:00 51.08752 -0.54450 2979 ft 202 kts 23°
2026-05-07 23:00 51.09816 -0.53229 3021 ft 186 kts 53°
2026-05-07 23:01 51.10359 -0.51500 2995 ft 167 kts 82°
2026-05-07 23:01 51.10536 -0.49688 2997 ft 161 kts 80°
2026-05-07 23:01 51.10777 -0.47959 2993 ft 159 kts 80°
2026-05-07 23:01 51.11014 -0.46268 2992 ft 158 kts 80°
2026-05-07 23:02 51.11255 -0.44558 2989 ft 158 kts 80°
2026-05-07 23:02 51.11495 -0.42846 2954 ft 159 kts 80°
2026-05-07 23:02 51.11735 -0.41140 2815 ft 157 kts 80°
2026-05-07 23:02 51.11968 -0.39476 2623 ft 151 kts 80°
2026-05-07 23:03 51.12193 -0.37873 2430 ft 146 kts 80°
2026-05-07 23:03 51.12411 -0.36321 2244 ft 137 kts 80°
2026-05-07 23:03 51.12612 -0.34884 2051 ft 129 kts 81°
2026-05-07 23:03 51.12803 -0.33511 1879 ft 126 kts 81°
2026-05-07 23:04 51.12992 -0.32157 1707 ft 125 kts 81°
2026-05-07 23:04 51.13180 -0.30807 1533 ft 125 kts 80°
2026-05-07 23:04 51.13368 -0.29458 1361 ft 125 kts 80°
2026-05-07 23:04 51.13559 -0.28111 1184 ft 125 kts 79°
2026-05-07 23:05 51.13748 -0.26759 1010 ft 125 kts 78°
2026-05-07 23:05 51.13928 -0.25415 847 ft 126 kts 78°
2026-05-07 23:05 51.14112 -0.24049 678 ft 126 kts 77°
2026-05-07 23:05 51.14305 -0.22679 486 ft 126 kts 77°
2026-05-07 23:06 51.14499 -0.21319 325 ft 125 kts 77°
2026-05-07 23:06 51.14685 -0.19976 220 ft 118 kts 77°
2026-05-07 23:06 51.14834 -0.18886 207 ft 82 kts 77°
2026-05-07 23:06 51.14935 -0.18161 206 ft 51 kts 77°
2026-05-07 23:07 51.15061 -0.17791 205 ft 17 kts 51°
2026-05-07 23:07 51.15103 -0.17751 205 ft 7 kts
2026-05-07 23:07 51.15158 -0.17766 205 ft 9 kts 348°
2026-05-07 23:07 51.15227 -0.17778 205 ft 11 kts
2026-05-07 23:08 51.15271 -0.17667 204 ft 15 kts 78°
2026-05-07 23:08 51.15324 -0.17574 204 ft 12 kts 354°
2026-05-07 23:08 51.15368 -0.17591 210 ft 0 kts 347°
2026-05-07 23:21 51.15363 -0.17588 204 ft 0 kts 347°